TimeEDT,TemperatureF,Dew PointF,Humidity,Sea Level PressureIn,VisibilityMPH,Wind Direction,Wind SpeedMPH,Gust SpeedMPH,PrecipitationIn,Events,Conditions,WindDirDegrees,DateUTC
12:53 AM,48.9,45.0,86,30.19,10.0,Calm,Calm,-,N/A,,Clear,0,2013-03-16 04:53:00
1:53 AM,48.0,45.0,89,30.19,10.0,Calm,Calm,-,N/A,,Clear,0,2013-03-16 05:53:00
2:53 AM,46.9,44.1,90,30.17,10.0,Calm,Calm,-,N/A,,Clear,0,2013-03-16 06:53:00
3:53 AM,46.9,44.1,90,30.16,10.0,Calm,Calm,-,N/A,,Clear,0,2013-03-16 07:53:00
4:53 AM,46.0,43.0,89,30.16,9.0,Calm,Calm,-,N/A,,Clear,0,2013-03-16 08:53:00
5:53 AM,46.0,43.0,89,30.15,10.0,ESE,3.5,-,N/A,,Clear,120,2013-03-16 09:53:00
6:53 AM,46.0,42.1,86,30.17,10.0,Calm,Calm,-,N/A,,Clear,0,2013-03-16 10:53:00
7:53 AM,44.1,42.1,93,30.18,7.0,East,3.5,-,N/A,,Clear,80,2013-03-16 11:53:00
8:53 AM,54.0,45.0,72,30.19,10.0,East,3.5,-,N/A,,Clear,100,2013-03-16 12:53:00
9:53 AM,62.1,46.0,56,30.19,10.0,ESE,5.8,-,N/A,,Clear,110,2013-03-16 13:53:00
10:53 AM,68.0,48.9,50,30.19,10.0,SSE,8.1,-,N/A,,Clear,150,2013-03-16 14:53:00
11:53 AM,70.0,50.0,49,30.18,10.0,SW,9.2,-,N/A,,Clear,220,2013-03-16 15:53:00
12:53 PM,70.0,52.0,53,30.17,10.0,SSW,11.5,-,N/A,,Clear,210,2013-03-16 16:53:00
1:53 PM,70.0,53.1,55,30.14,10.0,SW,11.5,-,N/A,,Clear,220,2013-03-16 17:53:00
2:53 PM,70.0,55.9,61,30.12,10.0,SSW,12.7,-,N/A,,Clear,210,2013-03-16 18:53:00
3:53 PM,69.1,57.9,68,30.10,10.0,SW,13.8,-,N/A,,Clear,220,2013-03-16 19:53:00
4:53 PM,69.1,57.9,68,30.09,10.0,SW,13.8,-,N/A,,Clear,220,2013-03-16 20:53:00
5:53 PM,68.0,57.0,68,30.09,10.0,SSW,9.2,-,N/A,,Clear,210,2013-03-16 21:53:00
6:53 PM,66.0,55.9,70,30.09,10.0,WSW,9.2,-,N/A,,Clear,240,2013-03-16 22:53:00
7:53 PM,64.0,55.9,75,30.10,10.0,WSW,4.6,-,N/A,,Clear,240,2013-03-16 23:53:00
8:53 PM,64.0,55.9,75,30.11,10.0,Calm,Calm,-,N/A,,Clear,0,2013-03-17 00:53:00
9:53 PM,57.9,54.0,87,30.11,10.0,Calm,Calm,-,N/A,,Clear,0,2013-03-17 01:53:00
10:53 PM,57.0,55.0,93,30.12,10.0,Calm,Calm,-,N/A,,Clear,0,2013-03-17 02:53:00
11:53 PM,53.1,52.0,96,30.12,7.0,Calm,Calm,-,N/A,,Clear,0,2013-03-17 03:53:00